Weather in Priyutnoe

Russia / Republic of Kalmykia     46°06′01″N   43°30′44″E
temp.,
°C
wind,
m/s
gust,
m/s
humid.,
%
clouds,
%
prec.,
mm/h
press.,
hPa
HPBL,
m
24 october, sun
sun2400:00+14wsw4448100 0.0 101857
03:00+12w4873100 0.0 1018170
06:00+12w3681100 0.0 1019149
09:00+13wnw3478100 0.0 1019331
12:00+13nnw3478100 0.2 1019347
15:00+13n3577100 0.6 1019457
18:00+12n3779100 0.1 1019367
21:00+12n4766100 0.1 1019462
25 october, mon
mon2500:00+8n81168100 0.1 1020673
03:00+6nnw71083100 2.6 1022648
06:00+7wnw2568100 1.1 1023339
09:00+9wnw7859100 1.1 10251006
12:00+11nw674535 0.0 10261602
15:00+11nw784587 0.0 10261834
18:00+9nnw3549100 0.0 10291103
21:00+6n47465 0.0 1030304
26 october, tue
tue2600:00+4n23534 0.0 103140
03:00+2nne22585 0.0 103221
06:00+1n226327 0.0 103314
09:00+4ne22515 0.0 1034361
12:00+7nne22380 0.0 10331067
15:00+8nne22320 0.0 10321147
18:00+5ne23400 0.0 103221
21:00+4e33463 0.0 103233
27 october, wed
wed2700:00+3ese345417 0.0 103262
03:00+2ese35595 0.0 103268
06:00+1ese46620 0.0 103195
09:00+5ese58480 0.0 1031435
12:00+10se78330 0.0 1029912
15:00+11ese78300 0.0 10281014
18:00+7ese410470 0.0 1028200
21:00+5ese512640 0.0 1027285
28 october, thu
thu2800:00+4ese411820 0.0 1026263
03:00+3ese49910 0.0 1025193
06:00+3ese49920 0.0 1025171
09:00+7se58750 0.0 1026376
12:00+12se56560 0.0 1024982
15:00+14se45490 0.0 10231235
18:00+10se33650 0.0 102429
21:00+8se35790 0.0 102379